| time (UTC) | temp F | wind direction | speed knots | gust knots | rain 1hr in | rain 24hr in | rain mn in | humidity % | barometer mb |
| 20260506183055 | 62 | 67 | 1.7 | 9.6 | 0.00 | 0.16 | 0.16 | 88 | 1008.1 |
| 20260506181539 | 61 | 114 | 2.6 | 9.6 | 0.00 | 0.16 | 0.16 | 89 | 1008.3 |
| 20260506180049 | 61 | 81 | 3.5 | 9.6 | 0.00 | 0.16 | 0.16 | 89 | 1008.2 |
| 20260506174542 | 61 | 77 | 1.7 | 16.5 | 0.00 | 0.16 | 0.16 | 89 | 1008.3 |
| 20260506173050 | 61 | 110 | 3.5 | 10.4 | 0.01 | 0.16 | 0.16 | 89 | 1008.3 |
| 20260506171541 | 61 | 91 | 3.5 | 10.4 | 0.01 | 0.16 | 0.16 | 89 | 1008.3 |
| 20260506170057 | 61 | 146 | 2.6 | 11.3 | 0.03 | 0.16 | 0.16 | 90 | 1008.6 |
| 20260506164542 | 61 | 107 | 2.6 | 12.2 | 0.05 | 0.16 | 0.16 | 90 | 1008.5 |
| 20260506163044 | 61 | 342 | 0.9 | 11.3 | 0.05 | 0.15 | 0.15 | 90 | 1008.6 |
| 20260506161542 | 61 | 115 | 0.9 | 9.6 | 0.07 | 0.15 | 0.15 | 90 | 1008.6 |
| 20260506160042 | 61 | 110 | 1.7 | 8.7 | 0.08 | 0.13 | 0.13 | 89 | 1009.1 |
| 20260506154541 | 61 | 103 | 0.9 | 6.1 | 0.08 | 0.11 | 0.11 | 89 | 1009.8 |
| 20260506153044 | 61 | 0 | 0.9 | 12.2 | 0.07 | 0.09 | 0.09 | 88 | 1009.9 |
| 20260506151544 | 61 | 118 | 3.5 | 9.6 | 0.08 | 0.08 | 0.08 | 86 | 1009.7 |
| 20260506150040 | 61 | 0 | 1.7 | 7.8 | 0.05 | 0.05 | 0.05 | 85 | 1009.4 |
| 20260506144550 | 62 | 86 | 1.7 | 9.6 | 0.03 | 0.03 | 0.03 | 84 | 1009.7 |
| 20260506143035 | 62 | 39 | 2.6 | 8.7 | 0.02 | 0.02 | 0.02 | 81 | 1009.6 |
| 20260506141541 | 63 | 113 | 2.6 | 8.7 | 0.00 | 0.00 | 0.00 | 78 | 1009.8 |
| 20260506140045 | 65 | 79 | 3.5 | 15.6 | 0.00 | 0.00 | 0.00 | 75 | 1009.7 |
| 20260506134541 | 65 | 101 | 2.6 | 7.8 | 0.00 | 0.00 | 0.00 | 74 | 1009.5 |
| 20260506133040 | 65 | 93 | 2.6 | 8.7 | 0.00 | 0.00 | 0.00 | 75 | 1009.3 |
| 20260506131549 | 65 | 129 | 3.5 | 8.7 | 0.00 | 0.00 | 0.00 | 75 | 1009.5 |
| 20260506130049 | 65 | 71 | 2.6 | 13.9 | 0.00 | 0.00 | 0.00 | 75 | 1009.7 |
| 20260506124538 | 65 | 77 | 2.6 | 12.2 | 0.00 | 0.00 | 0.00 | 74 | 1009.9 |
| 20260506123038 | 65 | 54 | 4.3 | 14.8 | 0.00 | 0.00 | 0.00 | 74 | 1009.6 |
| 20260506121538 | 65 | 112 | 1.7 | 10.4 | 0.00 | 0.00 | 0.00 | 75 | 1009.6 |
| 20260506120050 | 65 | 42 | 2.6 | 7.8 | 0.00 | 0.00 | 0.00 | 75 | 1009.3 |
| 20260506114542 | 65 | 56 | 3.5 | 9.6 | 0.00 | 0.00 | 0.00 | 75 | 1009.5 |
| 20260506113052 | 64 | 342 | 2.6 | 9.6 | 0.00 | 0.00 | 0.00 | 76 | 1009.3 |
| 20260506111539 | 64 | 140 | 1.7 | 9.6 | 0.00 | 0.00 | 0.00 | 76 | 1009.3 |
| 20260506110035 | 64 | 141 | 2.6 | 9.6 | 0.00 | 0.00 | 0.00 | 76 | 1009.2 |
| 20260506104543 | 63 | 53 | 1.7 | 8.7 | 0.00 | 0.00 | 0.00 | 77 | 1009.0 |
| 20260506103048 | 63 | 51 | 1.7 | 7.8 | 0.00 | 0.00 | 0.00 | 77 | 1009.1 |
| 20260506101539 | 63 | 138 | 0.9 | 6.1 | 0.00 | 0.00 | 0.00 | 77 | 1008.9 |
| 20260506100040 | 64 | 109 | 1.7 | 11.3 | 0.00 | 0.00 | 0.00 | 76 | 1008.8 |
| 20260506094536 | 64 | 107 | 1.7 | 8.7 | 0.00 | 0.00 | 0.00 | 76 | 1009.0 |
| 20260506093042 | 64 | 112 | 0.0 | 7.8 | 0.00 | 0.00 | 0.00 | 75 | 1009.1 |
| 20260506091542 | 65 | 84 | 0.9 | 8.7 | 0.00 | 0.00 | 0.00 | 75 | 1009.0 |
| 20260506090047 | 65 | 77 | 0.0 | 8.7 | 0.00 | 0.00 | 0.00 | 74 | 1009.1 |
| 20260506084553 | 66 | 115 | 2.6 | 11.3 | 0.00 | 0.00 | 0.00 | 74 | 1009.2 |
| 20260506083037 | 65 | 58 | 2.6 | 7.0 | 0.00 | 0.00 | 0.00 | 75 | 1009.1 |
| 20260506081543 | 65 | 53 | 0.9 | 7.8 | 0.00 | 0.00 | 0.00 | 75 | 1009.3 |
| 20260506073048 | 65 | 112 | 2.6 | 9.6 | 0.00 | 0.00 | 0.00 | 75 | 1009.4 |
| 20260506071559 | 66 | 58 | 0.9 | 7.8 | 0.00 | 0.00 | 0.00 | 74 | 1009.5 |
| 20260506061553 | 67 | 342 | 2.6 | 7.8 | 0.00 | 0.00 | 0.00 | 72 | 1009.8 |
| 20260506044544 | 66 | 115 | 0.9 | 6.1 | 0.00 | 0.00 | 0.00 | 69 | 1010.3 |
| 20260506043042 | 66 | 0 | 1.7 | 8.7 | 0.00 | 0.00 | 0.00 | 69 | 1010.3 |
| 20260506041542 | 66 | 120 | 1.7 | 7.8 | 0.00 | 0.00 | 0.00 | 68 | 1010.4 |
| 20260506040042 | 66 | 131 | 0.0 | 3.5 | 0.00 | 0.00 | 0.00 | 67 | 1010.3 |
| 20260506034550 | 67 | 0 | 0.9 | 4.3 | 0.00 | 0.00 | 0.00 | 66 | 1010.4 |
| 20260506033038 | 68 | 121 | 0.9 | 7.8 | 0.00 | 0.00 | 0.00 | 64 | 1010.1 |
| 20260506031547 | 68 | 113 | 0.9 | 6.1 | 0.00 | 0.00 | 0.00 | 62 | 1010.2 |
| 20260506030041 | 69 | 122 | 1.7 | 8.7 | 0.00 | 0.00 | 0.00 | 61 | 1010.2 |
| 20260506024553 | 69 | 115 | 0.9 | 7.8 | 0.00 | 0.00 | 0.00 | 59 | 1010.2 |
| 20260506023038 | 70 | 342 | 0.9 | 7.0 | 0.00 | 0.00 | 0.00 | 58 | 1010.3 |
| 20260506021547 | 70 | 342 | 0.9 | 5.2 | 0.00 | 0.00 | 0.00 | 56 | 1010.1 |
| 20260506020042 | 71 | 115 | 0.9 | 7.8 | 0.00 | 0.00 | 0.00 | 55 | 1010.1 |
| 20260506014541 | 72 | 109 | 0.9 | 8.7 | 0.00 | 0.00 | 0.00 | 54 | 1009.8 |
| 20260506013050 | 72 | 105 | 3.5 | 11.3 | 0.00 | 0.00 | 0.00 | 52 | 1009.6 |
| 20260506011538 | 72 | 342 | 1.7 | 10.4 | 0.00 | 0.00 | 0.00 | 51 | 1009.5 |
| 20260506010034 | 73 | 342 | 1.7 | 7.0 | 0.00 | 0.00 | 0.00 | 50 | 1009.4 |
| 20260506004540 | 73 | 342 | 1.7 | 10.4 | 0.00 | 0.00 | 0.00 | 49 | 1009.3 |
| 20260506003041 | 74 | 342 | 1.7 | 9.6 | 0.00 | 0.00 | 0.00 | 48 | 1009.3 |
| 20260506001542 | 75 | 342 | 2.6 | 9.6 | 0.00 | 0.00 | 0.00 | 47 | 1009.1 |
| 20260506000044 | 75 | 342 | 2.6 | 12.2 | 0.00 | 0.00 | 0.00 | 46 | 1009.0 |
| 20260505234538 | 76 | 108 | 1.7 | 10.4 | 0.00 | 0.00 | 0.00 | 43 | 1008.8 |
| 20260505233041 | 77 | 6 | 2.6 | 7.8 | 0.00 | 0.00 | 0.00 | 42 | 1008.7 |
| 20260505231559 | 77 | 73 | 0.9 | 6.1 | 0.00 | 0.00 | 0.00 | 41 | 1008.9 |
| 20260505230040 | 78 | 115 | 2.6 | 9.6 | 0.00 | 0.00 | 0.00 | 40 | 1008.7 |
| 20260505224539 | 79 | 342 | 3.5 | 13.0 | 0.00 | 0.00 | 0.00 | 39 | 1008.7 |
| 20260505223047 | 79 | 70 | 3.5 | 13.0 | 0.00 | 0.00 | 0.00 | 41 | 1008.7 |
| 20260505221539 | 79 | 111 | 3.5 | 14.8 | 0.00 | 0.00 | 0.00 | 40 | 1008.8 |
| 20260505220042 | 80 | 342 | 7.8 | 20.0 | 0.00 | 0.00 | 0.00 | 38 | 1008.8 |
| 20260505214600 | 81 | 109 | 4.3 | 12.2 | 0.00 | 0.00 | 0.00 | 38 | 1008.5 |
| 20260505213042 | 81 | 114 | 4.3 | 15.6 | 0.00 | 0.00 | 0.00 | 39 | 1008.6 |
| 20260505211543 | 81 | 103 | 4.3 | 13.9 | 0.00 | 0.00 | 0.00 | 37 | 1008.5 |
| 20260505210044 | 81 | 342 | 5.2 | 14.8 | 0.00 | 0.00 | 0.00 | 37 | 1008.5 |
| 20260505204549 | 81 | 44 | 3.5 | 13.9 | 0.00 | 0.00 | 0.00 | 37 | 1008.3 |
| 20260505203039 | 81 | 113 | 5.2 | 13.9 | 0.00 | 0.00 | 0.00 | 37 | 1008.4 |
| 20260505201543 | 81 | 342 | 3.5 | 13.0 | 0.00 | 0.00 | 0.00 | 37 | 1008.5 |
| 20260505200052 | 81 | 92 | 3.5 | 12.2 | 0.00 | 0.00 | 0.00 | 40 | 1008.6 |
| 20260505194538 | 81 | 342 | 5.2 | 16.5 | 0.00 | 0.00 | 0.00 | 38 | 1008.8 |
| 20260505193039 | 81 | 248 | 3.5 | 9.6 | 0.00 | 0.00 | 0.00 | 36 | 1009.0 |
| 20260505191544 | 80 | 68 | 4.3 | 14.8 | 0.00 | 0.00 | 0.00 | 38 | 1009.1 |
| 20260505190033 | 80 | 342 | 6.1 | 19.1 | 0.00 | 0.00 | 0.00 | 37 | 1009.2 |
| 20260505184542 | 81 | 342 | 3.5 | 14.8 | 0.00 | 0.00 | 0.00 | 38 | 1009.6 |